Simultaneous Nadir Overpasses (SNOs) Predictions

Prediction of SNOs between AQUA and METOP-B Satellite Orbit:

Table of predicted SNOs for the next 14.0 days since TLE Epoch: 6/1/2018
Index Date (AQUA) Time (AQUA) Lat,Lon (AQUA) SZA (AQUA ) Date (METOP-B) Time (METOP-B) Lat,Lon (METOP-B) SZA (METOP-B ) Distance(km) Time Diff (sec)
1 06/02/2018 14:11:00 73.91, -38.54 51.67 06/02/2018 14:10:30 73.91, -38.62 51.68 2.36 30
2 06/02/2018 15:00:26 -74.01, 128.89 128.23 06/02/2018 15:01:09 -74.01, 128.95 128.23 2.11 43
3 06/05/2018 09:45:14 73.94, 27.84 51.37 06/05/2018 09:44:49 73.93, 27.83 51.37 0.69 25
4 06/05/2018 10:34:41 -74.02,-164.71 128.54 06/05/2018 10:35:29 -74.03,-164.59 128.54 3.75 48
5 06/08/2018 04:29:50 -73.37, -72.14 129.50 06/08/2018 04:28:42 -73.33, -74.49 129.45 74.95 68
6 06/08/2018 05:19:29 73.97, 94.21 51.13 06/08/2018 05:19:09 73.95, 94.28 51.11 3.29 20
7 06/08/2018 06:08:55 -73.99, -98.21 128.85 06/08/2018 06:09:50 -74.00, -98.27 128.85 1.88 55
8 06/11/2018 00:04:08 -73.56, -6.10 129.53 06/11/2018 00:02:58 -73.54, -7.60 129.48 47.35 70
9 06/11/2018 00:53:43 73.95, 160.68 50.90 06/11/2018 00:53:29 73.96, 160.72 50.90 1.51 14
10 06/11/2018 01:43:10 -74.02, -31.84 129.04 06/11/2018 01:44:10 -74.01, -31.82 129.06 1.29 60
11 06/13/2018 19:38:26 -73.81, 59.81 129.43 06/13/2018 19:37:13 -73.75, 59.30 129.46 17.10 73
12 06/13/2018 20:27:56 73.95,-132.87 50.72 06/13/2018 20:27:48 73.97,-132.84 50.74 2.61 8
13 06/13/2018 21:17:23 -74.01, 34.63 129.22 06/13/2018 21:18:29 -74.02, 34.61 129.21 1.72 66




NCC Satellite Simultaneous Nadir Overpasses (SNOs) Prediction Service
